When you browse on this site, cookies collect data to enhance your experience and personalize the content and advertising you see.
Visit our Privacy Policy to learn more. By continuing to use the site, you agree to this use of cookies and data.
  • In Deutschland
  • Länderverzeichnis
  • Für 7 Tage
  • Wassertemperatur
  • Wetterkarte
  • Widgets
  • user-avatar
    Anmelden

    Stündliche Wetter Klagenfurt

    Heute, 23 November, Samstag

    Zeit Temperatur Niederschläge Wind Luftdruck Luftfeuchtigkeit
    00:00 +5°C° 0 mm 0 m/S 686 mmHg 96%
    01:00 +5°C° 0 mm 0 m/S 686 mmHg 96%
    02:00 +5°C° 0.1 mm 0 m/S 685 mmHg 96%
    03:00 +5°C° 0.1 mm 0 m/S 685 mmHg 96%
    04:00 +6°C° 0.1 mm 1 m/S 685 mmHg 96%
    05:00 +6°C° 0 mm 1 m/S 685 mmHg 96%
    06:00 +6°C° 0 mm 1 m/S 685 mmHg 97%
    07:00 +6°C° 0 mm 1 m/S 684 mmHg 97%
    08:00 +6°C° 0.1 mm 1 m/S 684 mmHg 96%
    09:00 +7°C° 0.1 mm 1 m/S 684 mmHg 96%
    10:00 +7°C° 0.1 mm 1 m/S 684 mmHg 95%
    11:00 +7°C° 0.3 mm 1 m/S 684 mmHg 96%
    12:00 +7°C° 0.3 mm 1 m/S 684 mmHg 96%
    13:00 +7°C° 0.3 mm 1 m/S 683 mmHg 96%
    14:00 +7°C° 0.7 mm 1 m/S 683 mmHg 97%
    15:00 +8°C° 0.7 mm 1 m/S 683 mmHg 97%
    16:00 +8°C° 0.7 mm 1 m/S 683 mmHg 98%
    17:00 +8°C° 0.4 mm 1 m/S 683 mmHg 98%
    18:00 +8°C° 0.4 mm 1 m/S 683 mmHg 98%
    19:00 +8°C° 0.4 mm 1 m/S 683 mmHg 98%
    20:00 +8°C° 0.4 mm 1 m/S 683 mmHg 98%
    21:00 +8°C° 0.4 mm 1 m/S 683 mmHg 98%
    22:00 +8°C° 0.4 mm 1 m/S 684 mmHg 98%
    23:00 +8°C° 0.2 mm 1 m/S 684 mmHg 97%

    Morgen, 24 November, Sonntag

    Zeit Temperatur Niederschläge Wind Luftdruck Luftfeuchtigkeit
    00:00 +8°C° 0.2 mm 1 m/S 684 mmHg 97%
    01:00 +8°C° 0.2 mm 1 m/S 684 mmHg 97%
    02:00 +7°C° 0.1 mm 1 m/S 684 mmHg 96%
    03:00 +6°C° 0.1 mm 0 m/S 683 mmHg 95%
    04:00 +6°C° 0.1 mm 0 m/S 683 mmHg 95%
    05:00 +6°C° 0 mm 0 m/S 683 mmHg 95%
    06:00 +6°C° 0 mm 0 m/S 683 mmHg 94%
    07:00 +6°C° 0 mm 0 m/S 684 mmHg 94%
    08:00 +7°C° 0 mm 0 m/S 684 mmHg 92%
    09:00 +8°C° 0 mm 0 m/S 684 mmHg 90%
    10:00 +9°C° 0 mm 0 m/S 685 mmHg 88%
    11:00 +9°C° 0 mm 0 m/S 685 mmHg 86%
    12:00 +10°C° 0 mm 0 m/S 685 mmHg 83%
    13:00 +11°C° 0 mm 0 m/S 685 mmHg 81%
    14:00 +10°C° 0 mm 0 m/S 685 mmHg 85%
    15:00 +9°C° 0 mm 0 m/S 684 mmHg 89%
    16:00 +8°C° 0 mm 0 m/S 684 mmHg 93%
    17:00 +8°C° 0 mm 0 m/S 684 mmHg 93%
    18:00 +7°C° 0 mm 0 m/S 684 mmHg 93%
    19:00 +6°C° 0 mm 0 m/S 685 mmHg 93%
    20:00 +6°C° 0 mm 0 m/S 685 mmHg 93%
    21:00 +6°C° 0 mm 0 m/S 685 mmHg 94%
    22:00 +6°C° 0 mm 0 m/S 685 mmHg 94%
    23:00 +5°C° 0 mm 0 m/S 685 mmHg 93%

    übermorgen, 25 November, Montag

    Zeit Temperatur Niederschläge Wind Luftdruck Luftfeuchtigkeit
    00:00 +6°C° 0 mm 1 m/S 685 mmHg 93%
    01:00 +6°C° 0 mm 1 m/S 685 mmHg 93%
    02:00 +6°C° 0 mm 1 m/S 684 mmHg 94%
    03:00 +6°C° 0 mm 1 m/S 684 mmHg 94%
    04:00 +6°C° 0 mm 1 m/S 684 mmHg 95%
    05:00 +6°C° 0 mm 1 m/S 684 mmHg 95%
    06:00 +6°C° 0 mm 1 m/S 684 mmHg 95%
    07:00 +6°C° 0 mm 1 m/S 684 mmHg 95%
    08:00 +6°C° 0 mm 1 m/S 685 mmHg 94%
    09:00 +7°C° 0 mm 1 m/S 685 mmHg 92%
    10:00 +8°C° 0 mm 1 m/S 685 mmHg 90%
    11:00 +8°C° 0 mm 1 m/S 685 mmHg 88%
    12:00 +9°C° 0 mm 1 m/S 685 mmHg 87%
    13:00 +9°C° 0 mm 1 m/S 685 mmHg 85%
    14:00 +9°C° 0 mm 1 m/S 684 mmHg 87%
    15:00 +8°C° 0 mm 1 m/S 684 mmHg 90%
    16:00 +7°C° 0 mm 1 m/S 684 mmHg 92%
    17:00 +7°C° 0 mm 1 m/S 684 mmHg 93%
    18:00 +7°C° 0 mm 1 m/S 684 mmHg 93%
    19:00 +7°C° 0 mm 1 m/S 684 mmHg 94%
    20:00 +6°C° 0 mm 1 m/S 685 mmHg 94%
    21:00 +6°C° 0 mm 1 m/S 685 mmHg 94%
    22:00 +6°C° 0 mm 1 m/S 685 mmHg 94%
    23:00 +6°C° 0 mm 1 m/S 684 mmHg 93%

    26 November, Dienstag

    Zeit Temperatur Niederschläge Wind Luftdruck Luftfeuchtigkeit
    00:00 +6°C° 0 mm 1 m/S 684 mmHg 93%
    01:00 +5°C° 0 mm 0 m/S 684 mmHg 92%
    02:00 +5°C° 0 mm 0 m/S 684 mmHg 92%
    03:00 +5°C° 0 mm 0 m/S 684 mmHg 91%
    04:00 +5°C° 0 mm 0 m/S 684 mmHg 91%
    05:00 +5°C° 0 mm 0 m/S 684 mmHg 91%
    06:00 +5°C° 0 mm 0 m/S 684 mmHg 91%
    07:00 +5°C° 0 mm 0 m/S 685 mmHg 91%
    08:00 +5°C° 0 mm 0 m/S 685 mmHg 89%
    09:00 +6°C° 0 mm 0 m/S 685 mmHg 87%
    10:00 +7°C° 0 mm 1 m/S 685 mmHg 85%
    11:00 +8°C° 0 mm 1 m/S 685 mmHg 83%
    12:00 +8°C° 0 mm 1 m/S 685 mmHg 81%
    13:00 +9°C° 0 mm 1 m/S 685 mmHg 79%
    14:00 +8°C° 0 mm 1 m/S 685 mmHg 82%
    15:00 +7°C° 0 mm 0 m/S 685 mmHg 85%
    16:00 +6°C° 0 mm 0 m/S 685 mmHg 88%
    17:00 +6°C° 0 mm 0 m/S 685 mmHg 88%
    18:00 +6°C° 0 mm 0 m/S 685 mmHg 89%
    19:00 +6°C° 0 mm 0 m/S 685 mmHg 90%
    20:00 +5°C° 0 mm 0 m/S 685 mmHg 90%
    21:00 +5°C° 0 mm 0 m/S 685 mmHg 91%
    22:00 +5°C° 0 mm 0 m/S 685 mmHg 91%
    23:00 +5°C° 0 mm 0 m/S 685 mmHg 91%

    27 November, Mittwoch

    Zeit Temperatur Niederschläge Wind Luftdruck Luftfeuchtigkeit
    00:00 +5°C° 0 mm 0 m/S 684 mmHg 91%
    01:00 +5°C° 0 mm 0 m/S 684 mmHg 91%
    02:00 +5°C° 0 mm 0 m/S 684 mmHg 92%
    03:00 +4°C° 0 mm 0 m/S 683 mmHg 92%
    04:00 +5°C° 0 mm 1 m/S 683 mmHg 93%
    05:00 +5°C° 0 mm 1 m/S 682 mmHg 94%
    06:00 +5°C° 0 mm 1 m/S 682 mmHg 94%
    07:00 +5°C° 0 mm 1 m/S 681 mmHg 94%
    08:00 +5°C° 0 mm 1 m/S 682 mmHg 92%
    09:00 +6°C° 0 mm 1 m/S 682 mmHg 90%
    10:00 +7°C° 0 mm 1 m/S 682 mmHg 88%
    11:00 +7°C° 0.2 mm 1 m/S 681 mmHg 89%
    12:00 +7°C° 0.2 mm 1 m/S 681 mmHg 91%
    13:00 +7°C° 0.2 mm 1 m/S 680 mmHg 92%
    14:00 +7°C° 0.2 mm 1 m/S 680 mmHg 93%
    15:00 +7°C° 0.2 mm 1 m/S 680 mmHg 94%
    16:00 +7°C° 0.2 mm 1 m/S 680 mmHg 95%
    17:00 +7°C° 1 mm 1 m/S 680 mmHg 96%
    18:00 +6°C° 1 mm 0 m/S 681 mmHg 96%
    19:00 +6°C° 1 mm 0 m/S 681 mmHg 97%
    20:00 +6°C° 0.2 mm 0 m/S 681 mmHg 97%
    21:00 +6°C° 0.2 mm 0 m/S 681 mmHg 97%
    22:00 +6°C° 0.2 mm 0 m/S 681 mmHg 96%
    23:00 +6°C° 0.1 mm 0 m/S 681 mmHg 96%

    28 November, Donnerstag

    Zeit Temperatur Niederschläge Wind Luftdruck Luftfeuchtigkeit
    00:00 +6°C° 0.1 mm 0 m/S 682 mmHg 96%
    01:00 +6°C° 0.1 mm 0 m/S 682 mmHg 96%
    02:00 +6°C° 0 mm 0 m/S 682 mmHg 96%
    03:00 +6°C° 0 mm 0 m/S 682 mmHg 96%
    04:00 +6°C° 0 mm 0 m/S 682 mmHg 96%
    05:00 +6°C° 0.1 mm 0 m/S 682 mmHg 96%
    06:00 +6°C° 0.1 mm 0 m/S 682 mmHg 96%
    07:00 +6°C° 0.1 mm 0 m/S 682 mmHg 96%
    08:00 +6°C° 0.3 mm 0 m/S 682 mmHg 95%
    09:00 +6°C° 0.3 mm 0 m/S 683 mmHg 94%
    10:00 +7°C° 0.3 mm 0 m/S 683 mmHg 93%
    11:00 +7°C° 0.4 mm 0 m/S 683 mmHg 93%
    12:00 +7°C° 0.4 mm 0 m/S 682 mmHg 93%
    13:00 +7°C° 0.4 mm 0 m/S 682 mmHg 92%
    14:00 +7°C° 0.2 mm 0 m/S 682 mmHg 93%
    15:00 +7°C° 0.2 mm 0 m/S 682 mmHg 95%
    16:00 +6°C° 0.2 mm 0 m/S 683 mmHg 96%
    17:00 +6°C° 0 mm 0 m/S 683 mmHg 96%
    18:00 +6°C° 0 mm 0 m/S 683 mmHg 96%
    19:00 +5°C° 0 mm 0 m/S 684 mmHg 97%
    20:00 +5°C° 0 mm 0 m/S 684 mmHg 96%
    21:00 +5°C° 0 mm 0 m/S 684 mmHg 96%
    22:00 +5°C° 0 mm 0 m/S 685 mmHg 95%
    23:00 +4°C° 0 mm 0 m/S 685 mmHg 95%
    Mehr zeigen